This is the latest recevied weather packets stored in our database for station/object S57D-6. If no packets are shown the sender has not sent any weather packets the latest 10 day(s).
| Time | Temp. | Humidity | Pressure | Rain* | Wind** | Luminosity | Snow |
|---|---|---|---|---|---|---|---|
| 1777886326 | 21.11° C | 52% | 1016.7 hPa | 0 mm | - | - | - |
| 1777885726 | 20.56° C | 55% | 1016.8 hPa | 0 mm | - | - | - |
| 1777885125 | 19.44° C | 56% | 1016.9 hPa | 0 mm | - | - | - |
| 1777884524 | 18.89° C | 57% | 1016.8 hPa | 0 mm | - | - | - |
| 1777884229 | 18.89° C | 59% | 1016.8 hPa | 0 mm | - | - | - |
| 1777883924 | 18.33° C | 59% | 1016.7 hPa | 0 mm | - | - | - |
| 1777883323 | 17.78° C | 60% | 1016.9 hPa | 0 mm | - | - | - |
| 1777882723 | 17.78° C | 61% | 1017 hPa | 0 mm | - | - | - |
| 1777882122 | 16.67° C | 63% | 1017 hPa | 0 mm | - | - | - |
| 1777881522 | 16.67° C | 64% | 1017 hPa | 0 mm | - | - | - |
| 1777880921 | 16.11° C | 65% | 1017.1 hPa | 0 mm | - | - | - |
| 1777880622 | 15.56° C | 66% | 1017.1 hPa | 0 mm | - | - | - |
| 1777880320 | 15.56° C | 66% | 1017.1 hPa | 0 mm | - | - | - |
| 1777880021 | 15.56° C | 68% | 1017.1 hPa | 0 mm | - | - | - |
| 1777879720 | 15° C | 69% | 1017.1 hPa | 0 mm | - | - | - |
| 1777879420 | 14.44° C | 70% | 1017 hPa | 0 mm | - | - | - |
| 1777879119 | 13.89° C | 71% | 1017.1 hPa | 0 mm | - | - | - |
| 1777878821 | 13.89° C | 71% | 1017.1 hPa | 0 mm | - | - | - |
| 1777878519 | 13.89° C | 71% | 1017.1 hPa | 0 mm | - | - | - |
| 1777878219 | 13.89° C | 71% | 1017.1 hPa | 0 mm | - | - | - |
| 1777877857 | 13.89° C | 72% | 1017.1 hPa | 0 mm | - | - | - |
| 1777877557 | 13.33° C | 73% | 1017.1 hPa | 0 mm | - | - | - |
| 1777877256 | 12.78° C | 74% | 1017.2 hPa | 0 mm | - | - | - |
| 1777876957 | 12.78° C | 75% | 1017.2 hPa | 0 mm | - | - | - |
| 1777876414 | 12.22° C | 76% | 1017.1 hPa | 0 mm | - | - | - |
* Rain latest hour (hover to see other rain measurements)
** Current wind speed in m/s (hover to see current wind gust speed)